Home   Weather   Warren   Past weeks

Flag for USA Past Weather in Warren, Michigan, USA — Yesterday and Last 2 Weeks

Now
33 °F

Fog.


Feels Like: 28 °F
Forecast: 34 / 40 °F
Wind: 6 mph from Southeast

Location: Detroit City Airport

Current Time: Jan 19, 2017 at 10:45:52 pm

Latest Report: Jan 19, 2017 at 10:00 pm


Visibility: 4 mi

Pressure: 29.94 "Hg

Humidity: 100%

Dew Point: 33 °F

Location of WarrenLocation

Past Weather in Warren — Graph

°F

Warren Temperature Yesterday

Maximum temperature yesterday: 41 °F (at 2:53 pm)
Minimum temperature yesterday: 36 °F (at 10:53 pm)
Average temperature yesterday: 38 °F

High & Low Weather Summary for the Past Weeks

 TemperatureHumidityPressure
High57 °F (Jan 12, 1:40 am)100% (Jan 10, 2:00 am)30.81 "Hg (Jan 10, 2:00 am)
Low6 °F (Jan 7, 5:53 am)49% (Jan 8, 2:53 pm)29.43 "Hg (Jan 10, 8:53 pm)
Average26 °F79%30.20 "Hg
* Reported Jan 4 8:53 pm — Jan 19 8:53 pm, Warren, Weather by CustomWeather, © 2017

Note: Actual official high and low records may vary slightly from our data, if they occured in-between our weather recording intervals... More about our weather records

Advertising

Warren Weather History for the Previous 24 Hours

Scroll right to see more
 ConditionsComfort  
Time TempWeatherWind HumidityBarometerVisibility
8:53 pm
Thu, Jan 19
34 °FFog.3 mph97%29.96 "Hg4 mi
7:53 pm34 °FFog.5 mph97%29.99 "Hg5 mi
6:53 pm34 °FFog.7 mph97%29.99 "Hg5 mi
5:53 pm34 °FFog.6 mph92%30.00 "Hg6 mi
4:53 pm34 °FFog.7 mph93%29.99 "Hg4 mi
3:53 pm36 °FFog.9 mph87%29.99 "Hg6 mi
2:53 pm37 °FOvercast.3 mph81%29.99 "Hg6 mi
1:53 pm37 °FOvercast.2 mph81%30.00 "Hg7 mi
12:53 pm37 °FOvercast.3 mph87%30.03 "Hg5 mi
11:53 am36 °FFog.5 mph87%30.06 "Hg5 mi
10:53 am34 °FOvercast.No wind88%30.10 "Hg7 mi
9:53 am34 °FOvercast.5 mph87%30.09 "Hg7 mi
8:53 am34 °FOvercast.3 mph87%30.07 "Hg7 mi
8:24 am33 °FOvercast.8 mph92%30.08 "Hg9 mi
7:53 am34 °FLow clouds.10 mph87%30.08 "Hg9 mi
6:53 am34 °FLow clouds.8 mph87%30.07 "Hg10 mi
5:53 am33 °FLow clouds.10 mph92%30.09 "Hg10 mi
4:53 am34 °FLow clouds.12 mph87%30.07 "Hg10 mi
3:53 am34 °FLow clouds.12 mph87%30.06 "Hg10 mi
2:53 am34 °FLow clouds.13 mph87%30.05 "Hg10 mi
1:53 am34 °FLow clouds.12 mph93%30.04 "Hg10 mi
12:53 am34 °FLow clouds.15 mph93%30.04 "Hg10 mi
11:53 pm
Wed, Jan 18
36 °FLow clouds.9 mph93%30.05 "Hg9 mi
10:53 pm36 °FLow clouds.9 mph93%30.05 "Hg9 mi
Weather by CustomWeather, © 2017

See weather overviewHow to use our weather pages